Location: Miami, Florida
(25.6830°N, 80.1700°W)
Time: 15:56:39
(UTC-04:00)

Vanguard 1 - Visible Passes

Search period start: 25 February 2018 00:00
Search period end: 07 March 2018 00:00
Orbit: 650 x 3833 km, 34.2° (Epoch: 24 February)

Date Brightness Start Highest point End Pass type
(mag) Time Alt. Az. Time Alt. Az. Time Alt. Az.
25 Feb 11.0 21:34:55 10° W 21:38:58 27° SW 21:38:58 27° SW visible
26 Feb 9.9 19:32:40 10° WNW 19:40:31 79° NNE 19:45:24 10° ESE visible
26 Feb 11.9 21:57:08 10° WSW 21:59:09 15° SW 21:59:09 15° SW visible
27 Feb 10.0 19:54:07 10° WNW 20:01:30 73° SSW 20:06:15 10° SE visible
28 Feb 10.6 20:15:38 10° WNW 20:22:19 47° SW 20:26:51 10° SE visible
01 Mar 11.4 20:37:24 10° W 20:42:58 28° SW 20:47:03 10° SSE visible
02 Mar 11.8 20:59:47 10° W 21:03:30 16° SW 21:06:34 10° S visible
04 Mar 14.4 07:12:04 10° SSE 07:20:55 14° SE 07:30:11 10° ESE visible
05 Mar 11.9 19:38:58 10° WNW 19:46:24 31° SW 19:51:13 10° SSE visible
06 Mar 12.1 20:01:25 10° W 20:06:49 19° SW 20:10:49 10° S visible
